User: anonymous   Login
Location: Arrakis Observatory
(44.1122°N, 95.7153°W)
Time: 05:28:31
(UTC-05:00)
Language:

Iridium 35 - Orbit

View from above orbital plane
View from above orbital plane
View from above satellite
View from above satellite

Ground track
Ground track

The orbit data is extracted from the following two-line orbital elements,

1 24966U 97056B   15216.52000121  .00000024  00000-0  14787-5 0  9998
2 24966 086.3937 244.0207 0002334 092.0947 268.0516 14.34215986934688
Epoch (UTC): 04 August 2015 12:28:48
Eccentricity: 0.0002334
inclination: 86.3937°
perigee height: 776 km
apogee height: 779 km
right ascension of ascending node: 244.0207°
argument of perigee: 92.0947°
revolutions per day: 14.34215986
mean anomaly at epoch: 268.0516°
orbit number at epoch: 93468

The dashed part of the orbit path shows where the satellite is in the earth's shadow,  

DLR